Home > Weather > Granby > Past weeks

Flag for Canada Weather for the Past 2 Weeks in Granby, Quebec, Canada

Now
-2 °F

Frigid.


Feels Like: -13 °F
Forecast: -5 / 18 °F
Wind: 5 mph from West

Location: Frelighsburg

Current Time: Feb 11, 2016 at 8:53:28 PM

Latest Report: Feb 11, 2016 at 8:00 PM


Visibility: N/A

Pressure: 30.02 "Hg

Humidity: 76%

Dew point: -8 °F

Location of GranbyLocation

Historic Weather in Granby — Graph

°F

Granby Temperature Yesterday

Maximum temperature yesterday: 26 °F (at 2:00 PM)
Minimum temperature yesterday: 19 °F (at 9:00 PM)
Average temperature yesterday: 21 °F

High & Low Weather Summary for the Past Weeks

 TemperatureHumidityPressure
High50 °F (Feb 4, 12:00 AM)100% (Feb 11, 1:00 AM)30.40 "Hg (Feb 11, 1:00 AM)
Low-1 °F (Feb 11, 7:00 PM)27% (Feb 8, 2:00 PM)29.41 "Hg (Feb 1, 5:00 AM)
Average28 °F75%29.87 "Hg
* Reported Jan 27 7:00 PM — Feb 11 7:00 PM, Granby, Weather by CustomWeather, © 2016

Note: Actual official high and low records may vary slightly from our data, if they occured in-between our weather recording intervals... More about our weather records

Advertising

Granby Weather History for the Previous 24 Hours

 ConditionsComfort  
Time TempWeatherWind HumidityBarometerVisibility
7:00 PM
Thu, Feb 11
-1 °FFrigid.6 mph90%29.99 "HgN/A
6:00 PM-1 °FFrigid.7 mph83%29.96 "HgN/A
4:00 PM1 °FFrigid.8 mph70%29.88 "HgN/A
3:00 PM3 °FFrigid.9 mph69%29.85 "HgN/A
2:00 PM6 °FFrigid.9 mph70%29.80 "HgN/A
1:00 PM7 °FFrigid.8 mph74%29.78 "HgN/A
12:00 PM8 °FFrigid.6 mph73%29.78 "HgN/A
11:00 AM8 °FFrigid.5 mph77%29.77 "HgN/A
10:00 AM8 °FFrigid.5 mph85%29.75 "HgN/A
9:00 AM9 °FFrigid.5 mph87%29.74 "HgN/A
8:00 AM9 °FFrigid.6 mph89%29.72 "HgN/A
7:00 AM10 °FCold.3 mph91%29.70 "HgN/A
6:00 AM12 °FCold.5 mph92%29.68 "HgN/A
5:00 AM15 °FCold.3 mph100%29.67 "HgN/A
4:00 AM16 °FCold.3 mph94%29.65 "HgN/A
3:00 AM18 °FCold.1 mph88%29.64 "HgN/A
2:00 AM17 °FCold.3 mph94%29.65 "HgN/A
1:00 AM18 °FCold.3 mph100%29.64 "HgN/A
12:00 AM18 °FCold.3 mph95%29.63 "HgN/A
11:00 PM
Wed, Feb 10
20 °FCold.3 mph88%29.63 "HgN/A
10:00 PM19 °FCold.3 mph94%29.63 "HgN/A
9:00 PM19 °FCold.2 mph95%29.63 "HgN/A
8:00 PM19 °FCold.2 mph95%29.62 "HgN/A
Weather by CustomWeather, © 2016

See weather overviewHow to use our weather pages